CST,Max TemperatureF,Mean TemperatureF,Min TemperatureF,Max Dew PointF,MeanDew PointF,Min DewpointF,Max Humidity, Mean Humidity, Min Humidity, Max Sea Level PressureIn, Mean Sea Level PressureIn, Min Sea Level PressureIn, Max VisibilityMiles, Mean VisibilityMiles, Min VisibilityMiles, Max Wind SpeedMPH, Mean Wind SpeedMPH, Max Gust SpeedMPH,PrecipitationIn, CloudCover, Events, WindDirDegrees
2013-12-1,,,,,,,,,,,,,,,,,,,,,,
2013-12-2,64,58,53,60,53,42,98,76,44,29.95,29.84,29.65,10,10,10,12,5,,0.00,5,,195
2013-12-3,67,64,61,64,62,61,100,92,80,29.86,29.83,29.77,10,10,10,15,11,,0.00,5,Rain,210
2013-12-4,71,66,61,70,67,62,100,99,83,29.99,29.92,29.86,10,3,0,12,8,,0.38,7,Fog-Rain,196
2013-12-5,72,68,65,72,69,65,100,100,100,30.05,30.00,29.96,10,2,0,15,10,21,0.00,7,Fog,187
2013-12-6,73,60,48,73,65,48,100,100,98,30.18,30.05,29.97,10,5,0,17,10,22,0.45,8,Fog-Rain,207
2013-12-7,48,44,40,48,44,41,100,100,93,30.31,30.23,30.17,10,8,4,17,13,23,0.15,8,Rain,21
2013-12-8,62,52,42,63,50,42,100,100,94,30.24,30.12,30.04,10,5,0,9,5,,0.00,5,Fog-Rain,33
2013-12-9,67,61,55,64,58,55,100,97,73,30.14,30.08,30.04,10,7,0,12,4,,0.05,7,Fog-Rain,18
2013-12-10,59,49,38,59,48,35,100,93,64,30.37,30.18,30.04,10,9,2,21,10,30,0.13,6,Rain,356
2013-12-11,59,48,36,43,37,32,87,63,46,30.41,30.36,30.31,10,10,10,10,8,,0.00,5,,20
2013-12-12,56,46,37,36,30,24,69,52,30,30.51,30.44,30.39,10,10,9,17,11,22,0.00,1,,27
2013-12-13,62,48,34,51,40,24,85,70,57,30.37,30.20,30.02,10,10,10,12,8,,0.00,4,,81
2013-12-14,70,60,50,66,60,45,100,93,75,30.04,29.93,29.84,10,9,5,14,7,25,0.10,7,Rain,232
2013-12-15,50,44,36,43,37,34,89,73,57,30.33,30.19,30.05,10,10,10,14,8,18,0.00,4,,358
2013-12-16,58,45,32,43,36,31,99,78,39,30.37,30.31,30.27,10,10,10,8,4,,0.00,0,,8
2013-12-17,62,50,39,42,39,36,100,74,43,30.36,30.30,30.25,10,10,2,12,2,,0.00,0,,253
2013-12-18,63,52,41,48,43,35,100,83,36,30.39,30.30,30.25,10,10,5,10,3,,0.00,0,,67
2013-12-19,70,56,42,62,50,42,100,88,60,30.24,30.19,30.08,10,9,5,10,4,,0.00,2,,88
2013-12-20,73,68,64,68,67,62,100,95,81,30.13,30.04,29.98,10,8,2,13,8,21,0.00,7,Rain,137
2013-12-21,71,68,66,72,69,66,100,100,97,29.98,29.90,29.83,10,5,0,15,11,22,0.00,8,Fog-Rain,153
2013-12-22,68,62,55,68,60,55,100,100,94,30.16,29.96,29.83,10,6,1,20,8,26,3.20,8,Rain-Thunderstorm,57
2013-12-23,55,46,37,56,47,32,100,92,75,30.46,30.25,30.12,10,10,6,12,5,16,0.17,7,Rain,1
2013-12-24,52,42,32,32,29,26,87,66,40,30.52,30.45,30.40,10,10,10,14,8,21,0.00,0,,24
2013-12-25,48,39,30,30,28,25,83,64,42,30.42,30.37,30.32,10,10,10,9,7,,0.00,4,,28
2013-12-26,53,45,37,39,32,29,79,63,43,30.38,30.33,30.29,10,10,10,10,7,,0.00,1,,20
2013-12-27,61,52,42,39,35,33,74,54,34,30.40,30.32,30.27,10,10,8,14,8,,0.00,5,Rain,34
2013-12-28,51,48,44,50,47,37,100,96,58,30.27,30.12,29.94,10,8,2,15,9,20,1.69,8,Rain,22
2013-12-29,58,52,46,50,48,46,100,97,62,30.14,30.06,29.95,10,8,1,10,4,18,0.06,4,Rain,327
2013-12-30,56,50,43,50,46,43,100,93,65,30.30,30.17,30.12,10,6,0,9,1,,0.00,1,Fog,355
2013-12-31,49,46,42,47,41,39,94,88,76,30.43,30.36,30.32,10,10,10,12,7,,0.03,3,Rain,35